Location: Litvinovka
(48.6667°N, 34.3500°E)
Time: 00:21:35
(UTC+00:00)

Cosmos 1707 - Pass Details

Date: 18 September 2020
Orbit: 515 x 530 km, 82.5° (Epoch: 23 October)

Event Time Altitude Azimuth Distance (km) Brightness Sun altitude
Rises 17:40:25 0° 342° (NNW) 2,653 7.0 -18.7°
Reaches altitude 10° 17:42:40 10° 334° (NNW) 1,758 6.1 -19.0°
Maximum altitude 17:46:11 35° 268° (W) 852 4.3 -19.5°
Drops below altitude 10° 17:49:41 10° 202° (SSW) 1,740 5.3 -20.1°
Enters shadow 17:50:33 - 197° (SSW) 2,074 5.7 -20.2°
